• Processing (Info)

  • MPEC 2003-T35 : 2003 TG2

    The following Minor Planet Electronic Circular may be linked-to from your own Web pages, but must not otherwise be redistributed electronically.

    A form allowing access to any MPEC is at the bottom of this page.


    Read MPEC 2003-T34 Read MPEC 2003-T36


    M.P.E.C. 2003-T35                                Issued 2003 Oct. 7, 13:36 UT
    
         The Minor Planet Electronic Circulars contain information on unusual
             minor planets and routine data on comets.  They are published
       on behalf of Commission 20 of the International Astronomical Union by the
              Minor Planet Center, Smithsonian Astrophysical Observatory,
                              Cambridge, MA 02138, U.S.A.
    
             Supported in part by the Steven and Michele Kirsch Foundation
                 Prepared using the Tamkin Foundation Computer Network
    
                                  MPC@CFA.HARVARD.EDU
              URL http://cfa-www.harvard.edu/iau/mpc.html  ISSN 1523-6714
    
                                       2003 TG2
    
    Observations:
         K03T02G*tC2003 10 05.11128 21 51 48.14 +24 17 10.2          20.8 V      291
         K03T02G tC2003 10 05.11882 21 51 48.16 +24 16 17.2          20.6 V      291
         K03T02G tC2003 10 05.12648 21 51 48.25 +24 15 25.8          20.8 V      291
         K03T02G tC2003 10 05.13899 21 51 48.27 +24 14 00.6                      291
         K03T02G tC2003 10 05.14333 21 51 48.31 +24 13 31.8          20.1 V      291
         K03T02G tC2003 10 05.14786 21 51 48.34 +24 13 00.6          20.2 V      291
         K03T02G tC2003 10 05.22066 21 51 48.69 +24 04 44.3          20.5 V      291
         K03T02G tC2003 10 05.22470 21 51 48.72 +24 04 16.8          20.5 V      291
         K03T02G  C2003 10 06.09751 21 52 08.40 +22 25 39.7          20.1        448
         K03T02G  C2003 10 06.10851 21 52 08.56 +22 24 25.7          19.8        448
         K03T02G  C2003 10 06.11952 21 52 08.62 +22 23 13.4          19.7        448
         K03T02G 5C2003 10 07.15255 21 52 34.03 +20 27 54.6          20.5 R      673
         K03T02G 5C2003 10 07.15891 21 52 34.12 +20 27 12.0                      673
         K03T02G 5C2003 10 07.16481 21 52 34.20 +20 26 32.7                      673
         K03T02G 5C2003 10 07.16574 21 52 34.24 +20 26 25.4                      673
    
    Observer details:
    291 LPL/Spacewatch II.  Observer J. A. Larsen.  1.8-m f/2.7 reflector + CCD.
    448 Desert Moon Observatory.  Observer B. L. Stevens.  0.3-m
        Schmidt-Cassegrain + CCD.
    673 Table Mountain Observatory, Wrightwood.  Observer J. Young.  0.6-m
        reflector + CCD.
    
    Orbital elements:
    2003 TG2                                                             PHA 0.035
    Epoch 2003 Sept. 18.0 TT = JDT 2452900.5                MPC
    M 139.97126              (2000.0)            P               Q
    n   1.14224596     Peri.  355.32408     -0.95814420     +0.24256874
    a   0.9063507      Node   200.74258     -0.24677071     -0.96903107
    e   0.3188536      Incl.   25.42455     -0.14513413     +0.04625142
    P   0.86           H   21.3           G   0.15
    From 15 observations 2003 Oct. 5-7.
    
    Ephemeris:
    2003 TG2                 a,e,i = 0.91, 0.32, 25                  q = 0.6174
    Date    TT    R. A. (2000) Decl.     Delta      r     Elong.  Phase     V
    2003 10 08    21 52.96   +18 54.9    0.250    1.188   134.3    37.0    20.2
    2003 10 18    22 00.56   +02 46.8    0.288    1.195   127.7    41.3    20.6
    2003 10 28    22 12.32   -08 34.6    0.345    1.195   117.8    47.4    21.2
    2003 11 07    22 26.97   -15 55.1    0.413    1.188   108.4    52.3    21.7
    
    Timothy B. Spahr             (C) Copyright 2003 MPC           M.P.E.C. 2003-T35
    

    Read MPEC 2003-T34 Read MPEC 2003-T36


    MPEC number:

    Enter an MPEC number in one of the following forms:

    • 1997-B01 (the full form)
    • J97B01 (the packed version of the full form)
    • B01 (the abbreviated form)